Sheridan, MI (48884)

5:58 AM EDT on August 04, 2015 (GMT -0400)
East Boyer Road, Fenwick | | Change Station
CLOSE
Current Station
Personal Weather Station
Location: Fenwick, MI
Elevation: 810 ft
Nearby Weather Stations

Elev 810 ft 43.17 °N, 85.04 °W | Updated 2 minutes ago

Clear
Clear
53.7 °F
Feels Like 53.7 °F
N
0.0
Wind Variable Wind from North
Gusts 0.0 mph

Today
High -- | Low -- °F
--% Chance of Precip.
Yesterday
High -- | Low -- °F
Precip. -- in
6:33 AM 8:58 PM
Waning Gibbous, 79% visible
Pressure 29.88 in
Visibility 10.0 miles
Clouds Clear
Dew Point 48 °F
Humidity 81%
Rainfall 0.00 in
Snow Depth Not available.
UV 0 out of 12
Pollen 5.20 out of 12
Air Quality Not available.
Flu Activity Not available.
METAR KY70 040934Z AUTO 25004KT 10SM CLR 15/12 A2988 RMK AO2 T01470116

More Conditions Fewer Conditions

Pressure 29.88 in
Visibility 10.0 miles
Clouds Clear
Dew Point 48 °F
Humidity 81%
Rainfall 0.00 in
Snow Depth Not available.
UV 0 out of 12
Pollen 5.20 out of 12
Air Quality Not available.
Flu Activity Not available.
METAR KY70 040934Z AUTO 25004KT 10SM CLR 15/12 A2988 RMK AO2 T01470116

More Conditions Fewer Conditions

10-Day Weather Forecast

×

Almanac

Astronomy

Aug. 04, 2015 Rise Set
Actual Time
Civil Twilight
Nautical Twilight
Astronomical Twilight
Moon
Length of Visible Light
Length of Day
Tomorrow will be .
, % of the Moon is Illuminated

Today's Extremes

State Highs State Lows

Community

WunderPhotos

Upload Photos

1,843,880 photos uploaded!

WunderBlogs® & News

Nearby

Air Quality

  Air Quality AQ Index Pollutant
Not available.

Snow Depth

Station Depth Elevation

Earthquake Activity

City Distance Mag. Time & Date
Minimum magnitude displayed is 2.5.

Coastal Water Temperatures

Place Temperature

Stations

Nearby Weather Stations

Station Location Temp. Windchill Dew Point Humidity Wind Precip. Elev Updated Type